Location: Bonn
(50.7330°N, 7.1000°E)
Time: 02:01:06
(UTC+02:00)

Daily predictions for brighter satellites

Satellite Brightness Start Highest point End
(mag) Time Altitude Azimuth Time Altitude Azimuth Time Altitude Azimuth
Cosmos 1626 2.6 00:00:44 13° SSW 00:04:01 58° WNW 00:07:44 10° N
Sich 1 3.2 00:09:00 22° SSE 00:11:33 54° E 00:15:45 10° NNE
deb Chang Zheng 4 3.8 00:09:21 10° NNE 00:13:43 73° WNW 00:17:33 13° SSW
Cosmos 1464 Rocket 4.0 00:07:46 10° NNW 00:13:57 81° W 00:18:39 18° S
CZ-2C R/B 3.7 00:09:40 17° SE 00:13:58 56° ENE 00:19:27 10° N
CZ-4C R/B 3.0 00:12:52 20° SSE 00:15:35 31° ESE 00:20:47 10° NE
Cosmos 1707 Rocket 3.7 00:15:06 10° NNW 00:19:35 70° W 00:22:28 21° S
Cosmos 1354 Rocket 4.1 00:15:10 10° SSW 00:20:25 82° WNW 00:25:42 10° NNE
ALOS 2 3.2 00:18:43 19° SE 00:21:31 47° ENE 00:25:46 10° N
SOZ 4.3 00:18:22 10° WSW 00:21:48 69° SSE 00:23:54 10° ENE
Cosmos 1538 Rocket 4.3 00:17:02 10° NNW 00:22:24 63° ENE 00:26:15 19° SE
Cosmos 1844 Rocket 3.5 00:19:50 20° SSE 00:22:41 33° ESE 00:27:37 10° NE
SL-27 R/B 4.5 00:20:36 10° N 00:23:11 20° NE 00:25:33 11° ESE
USA 234 3.3 00:28:51 10° ENE 00:35:27 83° NNW 00:41:59 10° WSW
Cosmos 1455 4.1 00:36:53 10° NW 00:39:59 23° W 00:42:34 12° SW
Cosmos 1666 Rocket 3.6 00:37:04 21° SSW 00:40:01 79° W 00:44:31 10° N
Cosmos 1862 Rocket 3.6 00:39:15 10° N 00:43:38 71° ENE 00:46:02 26° SSE
Cosmos 1933 3.4 00:40:04 10° N 00:44:12 76° E 00:46:16 28° SSE
SL-24 R/B - RUBIN 2 4.1 00:39:40 10° NW 00:45:19 67° SW 00:48:20 24° SSE
Cosmos 1869 4.4 00:45:21 10° NNW 00:48:58 35° W 00:51:09 19° SW
Cosmos 1933 Rocket 3.9 00:47:19 26° SSE 00:49:28 52° E 00:53:44 10° NNE
MINOTAUR R/B 4.3 00:50:06 36° SW 00:51:07 80° WNW 00:53:58 10° NNE
Cosmos 1805 Rocket 4.5 00:47:53 14° SW 00:51:18 42° WNW 00:55:28 10° N
Tsikada Rocket 4.0 00:46:50 21° S 00:51:19 81° E 00:57:39 10° NNE
CZ-2C R/B 2.7 00:46:35 10° NNE 00:51:55 64° ESE 00:55:03 24° S
Cosmos 773 Rocket 4.0 00:48:24 10° NNW 00:53:40 82° ENE 00:57:02 23° SSE
Cosmos 1633 Rocket 3.3 00:53:43 22° SSW 00:56:28 65° WNW 01:00:49 10° N
Cosmos 1315 Rocket 3.4 00:59:19 28° SE 01:00:52 42° E 01:04:37 10° NNE
H-2A R/B 4.5 01:00:49 10° WSW 01:02:45 13° W 01:04:41 10° WNW
CZ-4B R/B 3.1 01:02:14 16° ESE 01:04:17 27° ENE 01:07:23 10° N
Cosmos 1400 Rocket 2.8 01:02:39 28° S 01:04:45 86° ESE 01:08:56 10° NNE
Cosmos 2084 Rocket 4.2 01:04:36 10° WNW 01:07:59 30° WSW 01:08:55 27° SSW
Meteor 2-10 Rocket 3.7 01:02:44 10° NNW 01:08:03 70° W 01:11:22 24° S
Cosmos 292 Rocket 4.1 01:03:33 10° NNW 01:08:11 51° WSW 01:10:36 26° S
ARGOS Delta rocket 4.5 01:03:20 10° N 01:08:37 60° WNW 01:12:22 18° SSW
Terra 4.3 01:09:05 10° W 01:10:15 11° W 01:11:24 10° WNW
Cosmos 1777 Rocket 4.4 01:07:46 25° S 01:10:30 50° ESE 01:15:33 10° NNE
Cosmos 1782 4.3 01:09:03 10° N 01:12:41 30° ENE 01:15:10 16° ESE
Cosmos 1680 Rocket 3.9 01:07:42 10° NNW 01:12:57 61° ENE 01:16:48 18° SE
Cosmos 1892 3.2 01:13:22 30° SSE 01:14:57 49° E 01:18:45 10° NNE
Cosmos 2221 Rocket 4.4 01:10:44 10° N 01:15:01 44° ENE 01:17:38 21° SE
Cosmos 1833 Rocket 3.7 01:09:50 10° NNW 01:15:14 43° NE 01:20:36 10° ESE
Cosmos 1703 Rocket 3.9 01:10:51 10° N 01:15:19 60° ENE 01:17:47 25° SSE
Cosmos 2278 Rocket 3.0 01:14:41 23° SSE 01:17:26 36° ESE 01:22:35 10° NE
Cosmos 1461 4.0 01:20:38 23° SE 01:21:19 24° ESE 01:24:34 10° ENE
Cosmos 1844 3.7 01:20:36 24° SSW 01:24:05 70° ESE 01:29:39 10° NNE
Cosmos 1346 Rocket 3.0 01:20:24 10° N 01:24:17 63° ENE 01:26:08 28° SSE
Cosmos 1470 Rocket 3.9 01:24:46 24° SSW 01:27:18 61° WNW 01:31:44 10° N
Okean 1-7 3.4 01:26:11 10° N 01:30:28 58° ENE 01:32:53 25° SSE
Spot 2 4.2 01:26:10 10° NNE 01:31:01 76° ESE 01:33:26 28° S
Cosmos 1606 3.7 01:27:56 10° N 01:31:37 39° ENE 01:33:45 21° SE
Cosmos 2263 Rocket 4.1 01:28:28 10° WSW 01:33:14 28° NW 01:38:03 10° NNE
Meteor 1-26 Rocket 4.4 01:28:08 10° NNW 01:33:37 63° W 01:36:50 25° S
Cosmos 2279 Rocket 4.1 01:27:35 10° N 01:33:54 78° E 01:38:07 22° SSE
COSMOS 2406 4.3 01:31:01 10° NW 01:35:58 31° WSW 01:38:45 21° SSW
Cosmos 968 Rocket 4.1 01:33:15 15° SW 01:37:30 55° WNW 01:42:42 10° NNE
Cosmos 192 4.4 01:32:52 10° NNW 01:37:51 80° ENE 01:41:02 22° SSE
Landsat 5 3.6 01:37:17 26° SSE 01:39:36 69° ENE 01:43:40 10° N
Genesis I 4.0 01:39:10 30° SSE 01:40:11 35° ESE 01:43:47 10° NE
Cosmos 1869 Rocket 3.9 01:40:37 28° SSE 01:42:43 55° E 01:46:58 10° NNE
CZ-3B DEB 4.1 01:33:02 10° WNW 01:45:35 87° SSW 01:58:01 10° ESE
Cosmos 2082 Rocket 2.4 01:40:36 10° NNW 01:46:14 69° ENE 01:51:06 14° SE
Cosmos 44 Rocket 4.4 01:50:34 22° SSE 01:52:20 28° ESE 01:56:23 10° ENE
ATLAS 3B R/B 4.1 01:49:07 16° SSE 01:53:05 26° ESE 01:58:45 10° ENE
CZ-4C R/B 3.4 01:54:35 34° SW 01:55:31 44° W 01:58:39 10° NNW
ALOS 2 4.2 01:56:07 17° SW 01:58:06 22° W 02:01:35 10° NW
SL-27 R/B 3.2 01:55:26 10° NW 01:58:30 33° WSW 01:59:13 30° SW
Cosmos 1689 Rocket 2.1 01:57:37 41° S 01:58:34 77° WSW 02:01:45 10° NNW
Meteor 1-10 Rocket 4.3 01:57:42 10° NNW 02:03:31 88° WSW 02:07:26 22° S
CZ-4C R/B 2.7 01:58:12 10° WSW 02:03:40 64° NW 02:10:00 10° NE
Aureole 3 3.9 02:01:52 24° SSW 02:05:17 82° W 02:09:49 10° N
Cosmos 1733 Rocket 4.4 02:02:51 17° SE 02:05:26 30° E 02:09:14 10° NNE
Cosmos 1844 Rocket 3.4 02:01:28 13° SW 02:06:23 51° NW 02:11:52 10° NNE
Cosmos 1408 2.9 02:06:22 30° SSE 02:07:52 54° E 02:11:27 10° NNE
Meteor 2-3 Rocket 4.0 02:05:55 21° SSW 02:09:47 63° WNW 02:15:35 10° N
BREEZE M DEB (TANK) 4.1 02:13:34 17° SE 02:13:34 17° SE 02:14:27 10° ESE
Cosmos 1825 2.4 02:11:27 29° SSE 02:13:12 60° E 02:16:59 10° NNE
BREEZE-M DEB (TANK) 4.3 02:00:12 10° W 02:14:35 60° SSW 02:18:55 10° ESE
USA 234 4.1 02:11:51 10° ENE 02:18:10 54° N 02:24:30 10° W
Meteor 2-6 Rocket 4.2 02:15:39 10° NNW 02:21:11 72° W 02:24:52 22° S
BREEZE-M R/B 4.2 02:11:21 10° W 02:22:34 80° S 02:27:28 10° ESE
Cosmos 1607 4.3 02:19:58 23° S 02:23:45 53° ESE 02:29:52 10° NE
JB-3 4.4 02:24:03 10° NNE 02:28:17 88° W 02:30:34 26° SSW
Meteor 1-27 Rocket 3.8 02:24:02 10° NNW 02:30:01 88° WSW 02:34:27 19° S
Timation 2 Rocket 3.9 02:24:33 10° NNW 02:30:38 89° WSW 02:36:53 10° SSE
Cosmos 1674 Rocket 3.9 02:26:31 10° N 02:30:58 62° ENE 02:34:13 18° SSE
PSLV R/B 3.9 02:27:16 10° NNE 02:31:38 61° ESE 02:34:20 23° S
CZ-2C R/B 4.4 02:27:33 10° N 02:31:47 24° WNW 02:35:55 10° WSW
Abrixas 2.3 02:34:33 41° SW 02:35:08 51° S 02:37:48 10° ESE
CZ-4B R/B 2.9 02:35:49 22° SW 02:36:56 26° W 02:39:59 10° NW
Cosmos 1092 Rocket 4.2 02:33:35 19° S 02:38:14 67° E 02:44:25 10° NNE
H-2A R/B 2.7 02:37:35 10° NNE 02:42:08 80° WNW 02:44:52 23° SSW
COSMOS 2487 2.6 02:39:56 10° NNW 02:43:26 56° WSW 02:45:04 28° S
SL-08 R/B 4.2 02:39:17 10° SE 02:43:55 48° ENE 02:48:30 10° N
Exosat Rocket 4.0 02:39:31 10° NNW 02:44:52 70° WSW 02:51:25 12° SSE
Cosmos 1862 3.3 02:44:23 25° S 02:46:41 87° E 02:50:46 10° N
Cosmos 1782 4.1 02:45:29 10° NNW 02:48:59 28° W 02:50:48 20° SW
USA 238 DEB 4.5 02:45:56 18° S 02:50:39 40° ESE 02:57:04 10° NE
USA 238 4.5 02:46:03 17° S 02:50:45 40° ESE 02:57:10 10° NE
Cosmos 1378 Rocket 4.1 02:46:35 10° N 02:50:51 55° ENE 02:54:43 12° SSE
Cosmos 1833 Rocket 3.2 02:53:55 10° NW 02:59:11 41° WSW 03:02:47 19° SSW
Cosmos 1937 Rocket 3.6 02:56:34 20° S 03:00:07 68° ESE 03:05:15 10° NNE
Cosmos 1461 3.5 02:57:03 14° WSW 03:00:13 48° NW 03:04:10 10° NNE
Cosmos 2278 Rocket 2.9 02:56:30 13° SW 03:01:26 47° NW 03:06:54 10° NNE
SeaSat 1 2.4 02:57:15 10° SSE 03:02:12 83° WSW 03:07:10 10° NNW
Cosmos 1340 3.1 03:00:01 10° NNW 03:03:39 46° W 03:05:40 23° SSW
Cosmos 1606 4.4 03:04:16 10° NW 03:07:08 20° W 03:08:49 15° WSW
Nadezhda 4 Rocket 4.3 03:04:23 18° SSW 03:09:07 59° WNW 03:15:22 10° N
Cosmos 2369 Rocket 3.9 03:05:21 10° SSE 03:09:44 24° ESE 03:14:08 10° NE
Cosmos 990 Rocket 4.1 03:07:39 19° SSW 03:11:22 73° ESE 03:16:34 10° NNE
Cosmos 44 3.1 03:08:25 19° SW 03:11:43 89° WNW 03:16:11 10° NE
BREEZE-M DEB 1.9 03:08:11 10° W 03:12:10 70° S 03:14:17 10° E
ADEOS Rocket 4.0 03:07:47 10° NNE 03:15:19 54° E 03:22:13 10° S
Genesis I 4.5 03:14:12 10° WSW 03:17:51 36° NW 03:21:33 10° NNE
Cosmos 1898 Rocket 3.7 03:14:02 18° SW 03:17:58 68° WNW 03:23:16 10° NNE
Cosmos 2297 4.0 03:19:50 15° SW 03:24:32 63° WNW 03:30:11 10° NNE
ATLAS 5 CENTAUR R/B 4.5 03:22:04 10° NW 03:26:49 29° NNE 03:32:02 10° E
ARIANE 5 R/B 3.8 03:24:13 10° NNE 03:28:47 34° E 03:33:19 10° SSE
Cosmos 1655 Rocket 4.1 03:23:58 12° S 03:29:45 76° E 03:35:59 10° NNE
Cosmos 2082 Rocket 3.4 03:25:28 10° NW 03:29:49 24° WSW 03:32:55 15° SW
Helios 1A Rocket 3.2 03:28:23 10° N 03:32:29 59° WNW 03:35:33 16° SSW
Cosmos 44 Rocket 3.7 03:29:16 12° WSW 03:33:37 56° NW 03:38:19 10° NE
Cosmos 1975 Rocket 3.0 03:31:34 10° N 03:35:56 88° E 03:40:17 10° S
GP-B 3.3 03:31:58 10° N 03:36:21 59° W 03:39:55 15° SSW
Resurs 1-4 Rocket 3.0 03:31:25 10° NNE 03:36:33 45° E 03:41:37 10° S
CBERS-1 4.1 03:32:39 10° NNE 03:37:50 83° ESE 03:42:28 13° SSW
AQUA 3.9 03:33:42 10° NNE 03:38:29 76° ESE 03:42:46 13° S
CZ-3B DEB 4.3 03:26:52 10° WNW 03:38:51 48° SW 03:49:39 10° SSE
Okean 3 4.0 03:37:51 10° NNW 03:41:52 43° W 03:45:08 14° SSW
Cosmos 1437 2.7 03:39:04 10° NNW 03:42:18 65° W 03:45:06 13° S
ATLAS 3B R/B 2.9 03:36:22 13° SW 03:43:06 90° SE 03:50:14 10° NE
Cosmos 1733 Rocket 4.1 03:39:57 14° SW 03:43:12 33° WNW 03:47:09 10° N
SL-16 R/B 2.6 03:36:57 10° SSE 03:43:12 86° WSW 03:49:31 10° NNW
IRS-1D 4.2 03:39:33 10° NNE 03:44:32 50° E 03:49:24 10° S
Cosmos 405 Rocket 3.1 03:42:19 10° N 03:46:20 66° ENE 03:50:12 10° SSE
Cosmos 1825 4.5 03:47:04 10° W 03:49:13 14° WNW 03:51:22 10° NNW
Cosmos 1812 2.8 03:45:51 10° NNW 03:49:40 61° W 03:53:22 11° S
CZ-4C R/B 4.3 03:48:17 10° WNW 03:53:25 29° NNW 03:59:14 10° NE
Meteor 1-25 Rocket 4.3 03:49:21 10° S 03:54:56 79° E 04:00:38 10° NNE
S3M 4.0 03:49:04 10° NNW 03:55:15 71° W 04:01:20 10° S
Cosmos 158 Rocket 3.9 03:51:20 10° NNW 03:56:28 70° WSW 04:01:25 10° SSE
Cosmos 1269 Rocket 4.0 03:52:41 10° NNW 03:58:00 72° WSW 04:03:16 10° SSE
USA 161 4.3 03:56:16 10° ESE 03:58:05 17° ENE 03:59:57 10° NNE
Cosmos 1536 Rocket 4.4 03:54:11 10° N 03:58:36 53° ENE 04:02:59 10° SSE
IRS-1C 4.2 03:53:14 10° NNE 03:58:37 86° WNW 04:03:57 10° SSW
Cosmos 1633 3.5 03:55:41 10° SSE 03:59:09 45° E 04:02:38 10° NNE
Cosmos 1346 3.1 03:57:29 10° NNW 04:00:09 46° W 04:02:31 12° S
USA 234 4.0 03:54:19 10° E 04:00:43 58° NNE 04:07:07 10° WNW
CZ-2D R/B 2.4 03:56:16 10° NNE 04:01:39 70° ESE 04:07:04 10° S
Meteor 1-14 Rocket 4.5 04:00:37 11° SSW 04:06:25 70° WNW 04:12:26 10° N
Abrixas 3.3 04:07:18 10° W 04:09:38 25° SSW 04:11:57 10° SE
COSMOS 2455 3.9 04:05:23 10° S 04:10:53 38° ESE 04:16:24 10° NE
MOS 1 Rocket 4.3 04:08:22 10° NNE 04:13:41 54° E 04:18:44 10° S
Cosmos 2344 4.1 04:06:26 10° SSW 04:13:54 59° ESE 04:22:33 10° NE
COBE Rocket 4.1 04:11:21 10° N 04:16:04 60° WNW 04:20:56 10° SSW
Cosmos 1602 4.4 04:15:38 10° S 04:19:29 56° E 04:23:23 10° NNE
Meteor 2-4 Rocket 4.3 04:13:56 10° N 04:19:34 60° ENE 04:25:00 10° SSE
UNK 4.3 04:17:57 10° S 04:22:23 42° W 04:26:52 10° NNW
CZ-2D R/B 4.4 04:18:47 10° NNE 04:23:05 49° E 04:27:24 10° S
ADEOS II 4.1 04:22:34 10° NE 04:26:52 25° E 04:31:09 10° SE
Gbstr 26 Del rocket 4.2 04:25:17 10° SSW 04:28:18 23° SE 04:31:22 10° E
Cosmos 1536 4.2 04:27:34 10° SSE 04:31:16 38° E 04:35:00 10° NNE
